Location: Sevilla
(37.3933°N, 5.9839°W)
Time: 00:12:17
(UTC+02:00)

Courier 1B Rocket - All Passes

Search period start: 24 June 2024 00:00
Search period end: 04 July 2024 00:00
Orbit: 920 x 1201 km, 28.2° (Epoch: 22 June)

Date Brightness Start Highest point End Pass type
(mag) Time Alt. Az. Time Alt. Az. Time Alt. Az.
24 Jun - 02:05:26 10° SSE 02:06:45 11° SSE 02:08:05 10° SE night (unlit)
24 Jun - 03:53:53 10° SW 03:59:11 27° SSE 04:04:47 10° ESE visible
24 Jun - 05:45:54 10° WSW 05:52:01 39° S 05:58:33 10° ESE visible
24 Jun - 07:38:54 10° WSW 07:45:02 34° SSW 07:51:33 10° SE daylight
24 Jun - 09:33:14 10° WSW 09:37:56 18° SSW 09:42:47 10° SSE daylight
25 Jun - 02:53:41 10° SSW 02:58:18 21° SSE 03:03:06 10° ESE visible
25 Jun - 04:45:08 10° WSW 04:51:00 36° S 04:57:13 10° ESE visible
25 Jun - 06:37:50 10° WSW 06:43:57 37° S 06:50:28 10° ESE daylight
25 Jun - 08:31:32 10° WSW 08:36:53 23° SSW 08:42:29 10° SSE daylight
26 Jun - 01:53:55 10° S 01:57:29 16° SSE 02:01:06 10° ESE night (unlit)
26 Jun - 03:44:29 10° SW 03:50:02 32° SSE 03:55:51 10° ESE visible
26 Jun - 05:36:54 10° WSW 05:42:53 38° S 05:49:17 10° ESE visible
26 Jun - 07:30:10 10° WSW 07:35:50 28° SSW 07:41:49 10° SE daylight
26 Jun - 09:25:52 10° SW 09:28:37 12° SSW 09:31:25 10° S daylight
27 Jun - 00:55:35 10° SSE 00:56:40 10° SSE 00:57:46 10° SE night (unlit)
27 Jun - 02:44:00 10° SW 02:49:07 26° SSE 02:54:24 10° ESE visible
27 Jun - 04:36:02 10° WSW 04:41:53 38° S 04:48:04 10° ESE visible
27 Jun - 06:29:00 10° WSW 06:34:48 32° SSW 06:40:56 10° SE visible
27 Jun - 08:23:22 10° WSW 08:27:36 17° SSW 08:32:00 10° SSE daylight
28 Jun - 01:43:45 10° SSW 01:48:15 21° SSE 01:52:50 10° ESE night (unlit)
28 Jun - 03:35:15 10° WSW 03:40:54 35° S 03:46:48 10° ESE visible
28 Jun - 05:27:58 10° WSW 05:33:46 35° S 05:39:55 10° SE visible
28 Jun - 07:21:40 10° WSW 07:26:37 22° SSW 07:31:47 10° SSE daylight
29 Jun - 00:43:53 10° S 00:47:25 16° SSE 00:50:58 10° ESE night (unlit)
29 Jun - 02:34:34 10° SW 02:39:59 31° SSE 02:45:32 10° ESE visible
29 Jun - 04:27:02 10° WSW 04:32:47 37° S 04:38:49 10° ESE visible
29 Jun - 06:20:19 10° WSW 06:25:37 26° SSW 06:31:12 10° SE visible
29 Jun - 08:16:29 10° SW 08:18:20 11° SSW 08:20:11 10° SSW daylight
29 Jun - 23:45:14 10° SSE 23:46:36 11° SSE 23:47:58 10° SE visible
30 Jun - 01:34:02 10° SW 01:39:05 26° SSE 01:44:12 10° ESE night (unlit)
30 Jun - 03:26:09 10° WSW 03:31:49 37° S 03:37:42 10° ESE visible
30 Jun - 05:19:09 10° WSW 05:24:39 30° SSW 05:30:25 10° SE visible
30 Jun - 07:13:39 10° WSW 07:17:22 15° SSW 07:21:13 10° S daylight
01 Jul - 00:33:41 10° SSW 00:38:14 21° SSE 00:42:45 10° ESE visible
01 Jul - 02:25:19 10° WSW 02:30:53 34° S 02:36:33 10° ESE night (unlit)
01 Jul - 04:18:07 10° WSW 04:23:41 34° S 04:29:29 10° SE visible
01 Jul - 06:11:53 10° WSW 06:16:26 20° SSW 06:21:09 10° SSE visible
01 Jul - 23:33:41 10° SSW 23:37:23 16° SSE 23:41:02 10° ESE visible
02 Jul - 01:24:34 10° SW 01:29:58 31° S 01:35:23 10° ESE night (unlit)
02 Jul - 03:17:08 10° WSW 03:22:45 36° S 03:28:31 10° ESE visible
02 Jul - 05:10:30 10° WSW 05:15:30 25° SSW 05:20:42 10° SE visible
02 Jul - 22:34:34 10° S 22:36:32 11° SSE 22:38:29 10° SE visible
03 Jul - 00:23:55 10° SW 00:29:04 26° SSE 00:34:10 10° ESE visible
03 Jul - 02:16:11 10° WSW 02:21:49 36° S 02:27:30 10° ESE night (unlit)
03 Jul - 04:09:18 10° WSW 04:14:35 29° SSW 04:20:02 10° SE visible
03 Jul - 06:04:01 10° SW 06:07:13 14° SSW 06:10:30 10° S visible
03 Jul - 23:23:27 10° SSW 23:28:12 22° SSE 23:32:50 10° ESE visible
